CZ-6A DEB

Satellite information

Favourite Embed

Satellite Type and Status

DEBRISIN ORBIT

Key statistics

Satellite CZ-6A DEB at a glance.

Uptime

1083

Days in orbit

Revolutions

≈ 14.0

Per day

Orbit

SSO

Sun Synchronous Orbit

Inclination

98.9

Latest

Satellite identification and parameters

Extended collection of information and parameters for CZ-6A DEB.

Object identification

Identified? True

Debris? True

Object name: CZ-6A DEB

International designator: 2022-151AFC

Object number (NORAD): 56628

Object ID (CCSDS): 56628

Country: PEOPLES REPUBLIC OF CHINA (PRC)

Current information (Y/N): Y

RCS size: SMALL

Orbital parameters

Period: 102.496 minutes

Inclination: 98.8553 deg

SMA: 7254.922 km

Apoapsis: 928.279 km

Periapsis: 825.295 km

RAAN: 290.0884 deg

Eccentricy: 0.00709753

Argument of periapsis: 303.2912 deg

Mean anomaly: 56.147 deg

Mean motion: 14.04926595 rev/day

Mean motion (dot): 0.00000701 rev/day2

B* drag term: 0.00045284801 1/REarth

Two-line elements (TLE)

Creation date: Oct. 27, 2025, 10:32 a.m.

Reference frame: TEME

Reference center: EARTH

Epoch: Oct. 27, 2025, 5:03 a.m. UTC

TLE line 0: 0 CZ-6A DEB

TLE line 1: 1 56628U 22151AFC 25300.21056927 .00000701 00000-0 45285-3 0 9995

TLE line 2: 2 56628 98.8553 290.0884 0070975 303.2912 56.1470 14.04926595 79730

Live tracking on map

Real-time ground track for satellite CZ-6A DEB.

In-orbit conjunctions

A list of the most updated potential collisions computed for object CZ-6A DEB.

Target Orbit TCA Probability of collision Miss distance Type
NOAA 16 DEB SSO 2025-08-30 18:04:09 0.0001039174 252.0 (m) DEBRIS
COSMOS 970 DEB LEO 2025-04-06 17:03:13 0.0001203543 187.0 (m) DEBRIS
COSMOS 1375 DEB LEO 2025-02-15 23:01:00 0.0003866013 132.0 (m) DEBRIS
FENGYUN 1C DEB SSO 2024-08-05 01:44:09 0.0004248659 78.0 (m) DEBRIS

Associated space launch

Chinese satellite reported for atmospheric/ocean/environmental/spatial parameter research purposes, details TBD.

CZ-6A DEB was lifted into orbit during the mission ‘Long March 6A | Yunhai 3’, on board a Long March 6A space rocket.

The launch took place on Nov. 11, 2022, 10:52 p.m. from Launch Complex 9A.

For more information about the launch, click the button.

Launch to space Long March 6A | Yunhai 3
Long March 6A | Yunhai 3

Agency: N/A

Status: Launch Successful

Launch date: Nov. 11, 2022, 10:52 p.m. UTC

Rocket: Long March 6A

Launch pad: Launch Complex 9A

Location: Taiyuan Satellite Launch Center, People's Republic of China

...

Latest news about this satellite

There are no fresh news available about this satellite. Check back as we update our databases every day.


Newsletter sign-up

Weekly statistics, charts and insights to help you stay on top of the space industry.